Weather reports worldwide

Advertisment
Benson, United Kingdom (3658): temperature & dewpoint: 18.08.2017 00:00:00 - 24.08.2017 00:00:00 (BST)Benson, United Kingdom (3658): temperature -20cm & temperature -100cm: 18.08.2017 00:00:00 - 24.08.2017 00:00:00 (BST)Benson, United Kingdom (3658): wind speed & gusts: 18.08.2017 00:00:00 - 24.08.2017 00:00:00 (BST)Benson, United Kingdom (3658): wind direction: 18.08.2017 00:00:00 - 24.08.2017 00:00:00 (BST)Benson, United Kingdom (3658): reduced air pressure: 18.08.2017 00:00:00 - 24.08.2017 00:00:00 (BST)Benson, United Kingdom (3658): visibility: 18.08.2017 00:00:00 - 24.08.2017 00:00:00 (BST)Benson, United Kingdom (3658): precipitation: 18.08.2017 00:00:00 - 24.08.2017 00:00:00 (BST)
Date & Time tt [°C] td [°C] tt -20cm [°C] tt -100cm [°C] ff [km/h] ff [kn] fx [km/h] fx [kn] dd ppp [hPa] vv [km] rr [mm]
24.08.2017 00:00:00 13,0 11,0 - - 9 5 - - SW - 10 -
23.08.2017 23:00:00 14,2 11,5 - - 9 5 - - SSW 1015,6 10 0,0
23.08.2017 22:00:00 14,9 11,2 - - 5 3 - - SSW 1015,3 10 0,0
23.08.2017 21:00:00 16,0 11,1 - - 8 4 - - SW 1015,0 10 0,0
23.08.2017 20:00:00 17,5 11,4 - - 15 8 - - WSW 1014,6 10 0,0
23.08.2017 19:00:00 19,0 10,9 - - 21 11 - - WSW 1014,2 10 0,0
23.08.2017 18:00:00 19,3 11,2 - - 21 11 - - W 1014,3 10 0,0
23.08.2017 17:00:00 20,2 11,2 - - 21 11 - - WSW 1014,1 10 0,0
23.08.2017 16:00:00 20,1 11,6 - - 22 12 - - W 1014,2 10 0,0
23.08.2017 15:00:00 19,6 11,7 - - 22 12 - - WSW 1014,1 10 0,0
23.08.2017 14:00:00 20,1 14,0 - - 21 11 - - WSW 1013,6 10 0,0
23.08.2017 13:00:00 19,4 14,5 - - 18 10 - - W 1013,2 10 0,0
23.08.2017 12:00:00 19,8 14,5 - - 16 9 - - WSW 1013,0 10 0,0
23.08.2017 11:00:00 18,5 16,1 - - 16 9 - - WSW 1013,0 10 0,0
23.08.2017 10:00:00 18,2 16,9 17,7 16,0 9 5 - - SW 1012,5 5 0,0
23.08.2017 09:00:00 17,5 16,4 - - 9 5 - - SSW 1012,4 4,5 0,0
23.08.2017 08:00:00 17,1 16,2 - - 4 2 - - ESE 1011,9 4,5 0,0
23.08.2017 07:00:00 16,5 15,6 - - 2 1 - - WSW 1012,2 4,0 0,0
23.08.2017 06:00:00 17,1 15,5 - - 11 6 - - SSE 1011,3 5 0,0
23.08.2017 05:00:00 16,8 15,3 - - 13 7 - - SE 1011,8 6 0,0
23.08.2017 04:00:00 16,5 15,2 - - 8 4 - - SE 1012,3 8 0,0
23.08.2017 03:00:00 16,8 15,4 - - 5 3 - - SE 1012,8 8 0,0
23.08.2017 02:00:00 17,1 15,6 - - 8 4 - - ESE 1013,4 8 0,0
23.08.2017 01:00:00 17,2 15,5 - - 8 4 - - SE 1013,5 10 0,0
23.08.2017 00:00:00 17,6 15,6 - - 5 3 - - SE 1014,6 10 0,0
22.08.2017 23:00:00 17,9 15,5 - - 11 6 - - SE 1014,7 10 0,0
22.08.2017 22:00:00 19,0 16,8 - - 15 8 - - ESE 1014,7 7 0,2
22.08.2017 21:00:00 19,7 16,6 - - 15 8 - - E 1015,2 10 0,0
22.08.2017 20:00:00 20,7 16,9 - - 13 7 - - ESE 1015,5 10 0,0
22.08.2017 19:00:00 21,6 16,6 - - 11 6 - - ESE 1015,7 10 0,0
22.08.2017 18:00:00 21,7 16,8 - - 13 7 - - E 1016,2 10 0,0
22.08.2017 17:00:00 21,4 17,2 - - 15 8 - - E 1016,3 10 0,0
22.08.2017 16:00:00 21,7 17,4 - - 13 7 - - ESE 1017,1 10 0,0
22.08.2017 15:00:00 21,5 16,8 - - 11 6 - - SE 1018,0 10 0,0
22.08.2017 14:00:00 21,6 17,3 - - 18 10 - - E 1017,8 10 0,0
22.08.2017 13:00:00 21,5 17,1 - - 13 7 - - SSE 1018,9 10 0,0
22.08.2017 12:00:00 20,3 17,4 - - 11 6 - - S 1019,5 10 0,0
22.08.2017 11:00:00 18,2 16,7 - - 11 6 - - SSE 1019,7 10 0,0
22.08.2017 10:00:00 17,7 16,6 17,2 16,0 11 6 - - S 1020,2 10 0,0
22.08.2017 09:00:00 17,0 16,4 - - 13 7 - - SSE 1020,3 10 0,0
22.08.2017 08:00:00 16,8 16,2 - - 11 6 - - S 1020,1 10 0,0
22.08.2017 07:00:00 16,9 16,7 - - 11 6 - - S 1020,1 4,5 0,0
22.08.2017 06:00:00 17,2 16,9 - - 9 5 - - SSE 1019,8 4,5 0,0
22.08.2017 05:00:00 17,5 17,1 - - 8 4 - - S 1019,8 3,7 0,0
22.08.2017 04:00:00 17,7 17,2 - - 5 3 - - S 1019,9 4,0 0,0
22.08.2017 03:00:00 17,9 17,4 - - 8 4 - - SSE 1020,0 6 0,0
22.08.2017 02:00:00 18,0 17,5 - - 9 5 - - SSE 1020,2 7 0,0
22.08.2017 01:00:00 18,0 17,5 - - 8 4 - - SSE 1020,4 9 0,0
22.08.2017 00:00:00 18,1 17,5 - - 9 5 - - SSE 1020,6 7 0,0
21.08.2017 23:00:00 18,1 17,5 - - 9 5 - - SSE 1020,9 10 0,0
21.08.2017 22:00:00 18,1 17,3 - - 9 5 - - SSE 1021,0 10 0,0
21.08.2017 21:00:00 18,5 16,8 - - 11 6 - - SE 1020,7 10 0,0
21.08.2017 20:00:00 18,8 16,7 - - 9 5 - - SE 1020,5 10 0,0
21.08.2017 19:00:00 19,4 17,0 - - 9 5 - - ESE 1020,3 10 0,0
21.08.2017 18:00:00 19,1 17,0 - - 8 4 - - SE 1020,6 10 0,0
21.08.2017 17:00:00 18,6 17,2 - - 2 1 - - E 1020,9 5 0,0
21.08.2017 16:00:00 19,0 16,3 - - 4 2 - - SE 1020,9 10 0,0
21.08.2017 15:00:00 18,8 15,9 - - 5 3 - - SSE 1020,8 10 0,0
21.08.2017 14:00:00 18,2 15,4 - - 8 4 - - SSE 1021,3 10 0,0
21.08.2017 13:00:00 19,0 15,7 - - 4 2 - - SE 1021,3 10 0,0
21.08.2017 12:00:00 18,1 15,4 - - 4 2 - - E 1021,5 10 0,0
21.08.2017 11:00:00 17,1 14,8 - - 5 3 - - E 1021,6 10 0,0
21.08.2017 10:00:00 16,5 14,3 16,7 16,0 4 2 - - ESE 1021,5 10 0,0
21.08.2017 09:00:00 16,1 14,4 - - 11 6 - - ESE 1021,2 10 0,0
21.08.2017 08:00:00 15,3 14,1 - - 11 6 - - E 1020,9 10 0,0
21.08.2017 07:00:00 14,4 13,4 - - 8 4 - - ESE 1020,7 5 0,0
21.08.2017 06:00:00 14,1 13,4 - - 9 5 - - E 1020,3 7 0,0
21.08.2017 05:00:00 14,2 13,3 - - 15 8 - - ESE 1020,1 35 0,0
21.08.2017 04:00:00 14,2 13,1 - - 16 9 - - E 1020,3 35 0,0
21.08.2017 03:00:00 14,1 13,0 - - 21 11 - - ESE 1020,7 10 0,0
21.08.2017 02:00:00 13,8 13,0 - - 16 9 - - SE 1020,9 10 0,2
21.08.2017 01:00:00 13,7 12,9 - - 16 9 - - ESE 1021,7 6 2,0
21.08.2017 00:00:00 13,5 13,0 - - 13 7 - - E 1022,3 2,4 1,4
20.08.2017 23:00:00 13,5 12,8 - - 16 9 - - ESE 1022,3 2,3 0,8
20.08.2017 22:00:00 13,5 12,9 - - 13 7 - - ESE 1023,0 9 2,0
20.08.2017 21:00:00 13,5 12,9 - - 8 4 - - SSE 1023,5 3,2 2,2
20.08.2017 20:00:00 13,6 13,0 - - 5 3 - - SE 1023,2 3,2 0,4
20.08.2017 19:00:00 15,0 12,7 - - 16 9 - - SW 1023,2 20 0,2
20.08.2017 18:00:00 17,2 11,4 - - 21 11 - - SSW 1022,3 16 0,0
20.08.2017 17:00:00 18,6 9,2 - - 15 8 - - SSW 1022,8 10 0,0
20.08.2017 16:00:00 19,4 10,0 - - 15 8 - - S 1022,5 10 0,0
20.08.2017 15:00:00 19,3 8,8 - - 16 9 - - SW 1023,5 27 0,0
20.08.2017 14:00:00 19,7 9,7 - - 15 8 - - SW 1023,3 27 0,0
20.08.2017 13:00:00 19,2 8,7 - - 16 9 - - SW 1023,5 10 0,0
20.08.2017 12:00:00 18,6 9,6 - - 15 8 - - SW 1023,9 10 0,0
20.08.2017 11:00:00 17,9 8,9 - - 15 8 - - WSW 1023,9 10 0,0
20.08.2017 10:00:00 16,4 8,2 16,7 16,0 11 6 - - WSW 1024,0 10 0,0
20.08.2017 09:00:00 14,7 10,9 - - 5 3 - - SSW 1023,9 10 0,0
20.08.2017 08:00:00 11,9 10,4 - - 8 4 - - S 1023,3 23 0,0
20.08.2017 07:00:00 7,9 7,0 - - 5 3 - - ESE 1023,2 10 0,0
20.08.2017 06:00:00 6,0 5,7 - - 4 2 - - ESE 1022,8 10 0,0
20.08.2017 05:00:00 7,2 6,3 - - 5 3 - - SSE 1022,4 10 0,0
20.08.2017 04:00:00 8,7 7,8 - - 5 3 - - SSE 1022,4 10 0,0
20.08.2017 03:00:00 9,4 8,1 - - 5 3 - - S 1022,1 10 0,0
20.08.2017 02:00:00 12,2 9,0 - - 9 5 - - WSW 1021,8 30 0,0
20.08.2017 01:00:00 12,6 9,3 - - 9 5 - - WSW 1021,5 28 0,0
20.08.2017 00:00:00 13,3 9,2 - - 13 7 - - W 1021,4 30 0,0
19.08.2017 23:00:00 14,3 8,5 - - 15 8 - - W 1021,1 10 0,0
19.08.2017 22:00:00 14,2 8,0 - - 16 9 - - WSW 1020,8 10 0,0
19.08.2017 21:00:00 14,8 8,1 - - 15 8 - - WSW 1020,3 10 0,0
19.08.2017 20:00:00 15,8 7,1 - - 18 10 - - W 1019,7 10 0,0
19.08.2017 19:00:00 17,1 6,0 - - 26 14 - - W 1019,3 30 0,0
19.08.2017 18:00:00 17,5 6,2 - - 26 14 46 25 W 1018,9 30 0,0
19.08.2017 17:00:00 18,3 7,2 - - 31 17 55 30 WSW 1018,7 10 0,0
19.08.2017 16:00:00 18,3 7,1 - - 29 16 50 27 W 1018,3 10 0,0
19.08.2017 15:00:00 18,1 7,5 - - 26 14 - - W 1018,0 30 0,0
19.08.2017 14:00:00 18,7 7,2 - - 26 14 46 25 W 1017,7 40 0,0
19.08.2017 13:00:00 17,7 7,6 - - 26 14 50 27 W 1017,6 35 0,0
19.08.2017 12:00:00 17,3 8,6 - - 22 12 - - W 1017,4 10 0,0
19.08.2017 11:00:00 16,2 8,3 - - 24 13 - - W 1017,4 30 0,0
19.08.2017 10:00:00 16,1 9,6 17,0 16,0 21 11 - - W 1017,1 30 0,0
19.08.2017 09:00:00 14,8 9,9 - - 18 10 - - W 1016,8 30 0,0
19.08.2017 08:00:00 14,0 9,9 - - 18 10 - - W 1016,4 30 0,0
19.08.2017 07:00:00 12,9 10,4 - - 13 7 - - W 1015,6 10 0,0
19.08.2017 06:00:00 12,8 10,3 - - 16 9 - - W 1015,1 10 0,0
19.08.2017 05:00:00 12,9 10,7 - - 15 8 - - WSW 1014,2 10 0,0
19.08.2017 04:00:00 13,6 11,3 - - 15 8 - - WSW 1013,7 35 0,0
19.08.2017 03:00:00 13,0 11,1 - - 8 4 - - SW 1013,3 30 0,0
19.08.2017 02:00:00 13,5 11,1 - - 16 9 - - WSW 1012,8 10 0,0
19.08.2017 01:00:00 13,5 11,3 - - 15 8 - - WSW 1012,4 28 0,0
19.08.2017 00:00:00 13,9 11,1 - - 22 12 46 25 SW 1011,6 29 0,0
18.08.2017 23:00:00 13,5 10,4 - - 29 16 - - SSW 1011,3 10 0,2
18.08.2017 22:00:00 13,3 10,4 - - 24 13 - - SSW 1011,2 7 0,4
18.08.2017 21:00:00 14,1 9,8 - - 13 7 - - SSW 1011,4 10 0,0
18.08.2017 20:00:00 14,7 8,5 - - 15 8 - - SW 1011,8 10 0,0
18.08.2017 19:00:00 15,0 9,6 - - 16 9 - - SW 1011,7 30 0,0
18.08.2017 18:00:00 15,5 9,3 - - 26 14 - - WSW 1011,5 35 0,0
18.08.2017 17:00:00 16,4 10,1 - - 26 14 - - SW 1010,9 10 0,0
18.08.2017 16:00:00 14,3 10,0 - - 24 13 - - SW 1011,3 10 0,0
18.08.2017 15:00:00 15,0 10,0 - - 18 10 - - SW 1010,8 10 1,8
18.08.2017 14:00:00 17,5 10,7 - - 28 15 - - SSW 1010,3 10 0,0
18.08.2017 13:00:00 15,1 11,1 - - 21 11 - - SW 1010,8 10 0,0
18.08.2017 12:00:00 18,8 9,2 - - 22 12 - - WSW 1010,5 10 0,0
18.08.2017 11:00:00 17,5 9,5 - - 21 11 - - WSW 1010,8 10 0,0
18.08.2017 10:00:00 16,7 9,1 17,5 16,0 18 10 - - W 1010,9 10 0,0
18.08.2017 09:00:00 15,7 11,6 - - 18 10 - - WSW 1010,5 10 0,0
18.08.2017 08:00:00 14,6 12,8 - - 18 10 - - SSW 1009,7 10 0,0
18.08.2017 07:00:00 14,2 12,8 - - 15 8 - - SSW 1009,8 10 0,0
18.08.2017 06:00:00 14,2 13,2 - - 11 6 - - S 1009,4 10 0,0
18.08.2017 05:00:00 14,9 14,1 - - 13 7 - - S 1009,2 10 0,4
18.08.2017 04:00:00 14,9 14,2 - - 8 4 - - S 1009,7 10 4,2
18.08.2017 03:00:00 15,0 13,6 - - 18 10 - - S 1010,1 15 0,0
18.08.2017 02:00:00 14,7 13,4 - - 13 7 - - S 1010,2 13 0,0
18.08.2017 01:00:00 14,9 13,4 - - 13 7 - - S 1010,9 10 0,0
18.08.2017 00:00:00 16,2 13,8 - - 15 8 - - S 1011,2 10 0,0

tt = temperature
td = dewpoint
tt -20cm = temperature -20cm
tt -100cm = temperature -100cm
ff = wind speed
fx = gusts
dd = wind direction
ppp = reduced air pressure
vv = visibility
rr = precipitation

Next stations